Boscombe Down, United Kingdom

11:14 PM BST on August 17, 2017 (GMT +0100)
Boscombe Down

Weather History for EGDM - December, 2012

Change the Weather History Date:

Monday, December 3, 2012

  Actual Average Record
Temperature  
Mean Temperature 43 °F -  
Max Temperature 49 °F 42 °F 55 °F (2015)
Min Temperature 37 °F 35 °F 21 °F (2010)
Degree Days  
Heating Degree Days 22    
Moisture  
Dew Point 41 °F    
Average Humidity 87    
Maximum Humidity 100    
Minimum Humidity 64    
Precipitation  
Precipitation 0.01 in - - ()
Sea Level Pressure  
Sea Level Pressure 29.76 in    
Wind  
Wind Speed 11 mph ()    
Max Wind Speed 21 mph    
Max Gust Speed -    
Visibility 7.2 miles    
Events Fog , Rain    
Averages and records for this station are not official NWS values.
T = Trace of Precipitation, MM = Missing Value Source: Averaged Metar Reports

Daily Weather History Graph

Daily Weather History Graph

Search for Another Location

Airport or City:

Trip Planner

Search our weather history database for the weather conditions in past years. The results will help you decide how hot, cold, wet, or windy it might be!

Date:

Astronomy

Dec. 03, 2012 Rise Set
Actual Time 7:51 AM GMT 4:01 PM GMT
Civil Twilight 7:13 AM GMT 4:40 PM GMT
Nautical Twilight 6:30 AM GMT 5:22 PM GMT
Astronomical Twilight 5:50 AM GMT 6:02 PM GMT
Moon 8:51 PM GMT (12/3) 10:52 AM GMT (12/3)
Length of Visible Light 9h 27m
Length of Day
8h 09m
Waning Gibbous, 80% of the Moon is Illuminated
Dec 3
Waning Gibbous
Dec 6
Last Quarter
Dec 13
New
Dec 20
First Quarter
Dec 28
Full

Hourly Weather History & Observations

Time (GMT) Temp. Windchill Dew Point Humidity Pressure Visibility Wind Dir Wind Speed Gust Speed Precip Events Conditions
12:50 AM 41.0 °F 35.2 °F 41.0 °F 100% 29.86 in 3.7 mi South 9.2 mph - N/A   Light Drizzle
1:50 AM 42.8 °F 36.6 °F 42.8 °F 100% 29.83 in 0.2 mi South 11.5 mph - N/A Rain Light Rain
2:50 AM 43 °F - 43 °F 100% 29.83 in 0 mi South 9.2 mph - - Fog Fog
2:50 AM 42.8 °F 37.5 °F 42.8 °F 100% 29.80 in - South 9.2 mph - N/A Fog Fog
3:50 AM 44.6 °F 39.7 °F 44.6 °F 100% 29.77 in 2.5 mi SSW 9.2 mph - N/A   Mostly Cloudy
4:50 AM 48.2 °F - 48.2 °F 100% 29.77 in 6.2 mi West 15.0 mph - N/A   Mostly Cloudy
5:50 AM 48 °F - 48 °F 100% 29.78 in 22 mi West 13.8 mph - -   Mostly Cloudy
5:50 AM 48.2 °F - 48.2 °F 100% 29.74 in 6.2 mi West 13.8 mph - N/A   Scattered Clouds
6:50 AM 50.0 °F - 48.2 °F 94% 29.74 in 6.2 mi West 17.3 mph - N/A   Mostly Cloudy
7:50 AM 50.0 °F - 48.2 °F 94% 29.74 in 6.2 mi West 16.1 mph - N/A Rain Light Rain
8:50 AM 48 °F - 46 °F 89% 29.77 in 19 mi West 17.3 mph - - Rain Light Rain
8:50 AM 48.2 °F - 46.4 °F 93% 29.74 in 6.2 mi West 17.3 mph - N/A   Mostly Cloudy
9:50 AM 48.2 °F - 44.6 °F 87% 29.77 in 6.2 mi West 16.1 mph - N/A Rain Light Rain
10:50 AM 48.2 °F - 42.8 °F 82% 29.77 in 6.2 mi WNW 19.6 mph - N/A   Mostly Cloudy
11:38 AM 46.4 °F 38.7 °F 41.0 °F 81% 29.80 in 6.2 mi WNW 20.7 mph - N/A   Mostly Cloudy
11:50 AM 47 °F - 41 °F 73% 29.81 in 19 mi WNW 17.3 mph - -   Partly Cloudy
11:50 AM 48.2 °F - 41.0 °F 76% 29.77 in 6.2 mi WNW 17.3 mph - N/A   Mostly Cloudy
12:50 PM 46.4 °F 39.2 °F 39.2 °F 76% 29.80 in 6.2 mi WNW 18.4 mph - N/A   Mostly Cloudy
1:50 PM 46.4 °F 39.5 °F 37.4 °F 71% 29.80 in 6.2 mi WNW 17.3 mph - N/A   Mostly Cloudy
2:50 PM 45 °F - 37 °F 64% 29.80 in 22 mi West 12.7 mph - -   Scattered Clouds
2:50 PM 44.6 °F 38.4 °F 37.4 °F 76% 29.77 in 6.2 mi West 12.7 mph - N/A   Mostly Cloudy
3:50 PM 42.8 °F 37.5 °F 39.2 °F 87% 29.77 in 6.2 mi West 9.2 mph - N/A   Mostly Cloudy
4:50 PM 42.8 °F 35.8 °F 37.4 °F 81% 29.74 in 6.2 mi West 13.8 mph - N/A   Mostly Cloudy
5:50 PM 43 °F - 36 °F 67% 29.75 in 22 mi West 13.8 mph - -   Scattered Clouds
5:50 PM 42.8 °F 35.8 °F 35.6 °F 76% 29.71 in 6.2 mi West 13.8 mph - N/A   Mostly Cloudy
6:50 PM 42.8 °F 37.0 °F 35.6 °F 76% 29.71 in 6.2 mi West 10.4 mph - N/A   Overcast
7:50 PM 39.2 °F 34.2 °F 35.6 °F 87% 29.71 in 6.2 mi SW 6.9 mph - N/A   Scattered Clouds
8:50 PM 38 °F - 36 °F 87% 29.72 in 14 mi SW 9.2 mph - -  
8:50 PM 39.2 °F 33.0 °F 35.6 °F 87% 29.68 in 6.2 mi SW 9.2 mph - N/A   Unknown
9:50 PM 37.4 °F 34.9 °F 35.6 °F 93% 29.68 in 6.2 mi West 3.5 mph - N/A   Partly Cloudy
10:50 PM 37.4 °F 31.4 °F 35.6 °F 93% 29.68 in 6.2 mi SW 8.1 mph - N/A   Mostly Cloudy
11:50 PM 38 °F - 35 °F 87% 29.69 in 19 mi West 11.5 mph - -   Mostly Cloudy
11:50 PM 39.2 °F 32.0 °F 35.6 °F 87% 29.65 in 6.2 mi West 11.5 mph - N/A   Mostly Cloudy